• In Uzbekistan
  • List of Countries
  • For 7 days
  • Water Temperature
  • Satellite Maps
  • Weather Map
  • Weather Widgets
  • user-avatar
    Login

    Hourly Weather Sopron

    Today, 18 October, Wednesday

    Time Temperature Precipitation Wind Pressure Humidity
    00:00 +14°C° 0 mm 2 mps 749 mmHg 79%
    01:00 +14°C° 0 mm 2 mps 748 mmHg 81%
    02:00 +14°C° 0 mm 2 mps 748 mmHg 82%
    03:00 +12°C° 0 mm 3 mps 747 mmHg 83%
    04:00 +12°C° 0 mm 3 mps 747 mmHg 84%
    05:00 +13°C° 0 mm 2 mps 747 mmHg 84%
    06:00 +13°C° 0 mm 2 mps 747 mmHg 85%
    07:00 +13°C° 0 mm 2 mps 747 mmHg 85%
    08:00 +15°C° 0 mm 2 mps 746 mmHg 78%
    09:00 +17°C° 0 mm 3 mps 746 mmHg 70%
    10:00 +19°C° 0 mm 3 mps 746 mmHg 62%
    11:00 +20°C° 0 mm 3 mps 746 mmHg 57%
    12:00 +21°C° 0 mm 3 mps 746 mmHg 52%
    13:00 +22°C° 0 mm 3 mps 745 mmHg 46%
    14:00 +22°C° 0 mm 3 mps 745 mmHg 49%
    15:00 +21°C° 0 mm 2 mps 745 mmHg 51%
    16:00 +21°C° 0 mm 2 mps 744 mmHg 53%
    17:00 +19°C° 0 mm 2 mps 744 mmHg 58%
    18:00 +17°C° 0 mm 2 mps 744 mmHg 62%
    19:00 +16°C° 0 mm 1 mps 744 mmHg 67%
    20:00 +15°C° 0 mm 1 mps 744 mmHg 69%
    21:00 +15°C° 0 mm 1 mps 744 mmHg 70%
    22:00 +14°C° 0 mm 1 mps 744 mmHg 72%
    23:00 +14°C° 0 mm 1 mps 744 mmHg 74%

    Tomorrow, 19 October, Thursday

    Time Temperature Precipitation Wind Pressure Humidity
    00:00 +14°C° 0 mm 1 mps 745 mmHg 75%
    01:00 +13°C° 0 mm 1 mps 745 mmHg 77%
    02:00 +13°C° 0 mm 1 mps 745 mmHg 78%
    03:00 +13°C° 0 mm 1 mps 744 mmHg 79%
    04:00 +12°C° 0 mm 1 mps 744 mmHg 81%
    05:00 +12°C° 0 mm 1 mps 744 mmHg 81%
    06:00 +12°C° 0 mm 1 mps 745 mmHg 81%
    07:00 +12°C° 0 mm 1 mps 745 mmHg 81%
    08:00 +14°C° 0 mm 1 mps 745 mmHg 73%
    09:00 +18°C° 0 mm 1 mps 745 mmHg 65%
    10:00 +20°C° 0 mm 1 mps 745 mmHg 57%
    11:00 +21°C° 0 mm 1 mps 745 mmHg 54%
    12:00 +22°C° 0 mm 1 mps 745 mmHg 51%
    13:00 +23°C° 0 mm 1 mps 745 mmHg 47%
    14:00 +22°C° 0 mm 1 mps 744 mmHg 50%
    15:00 +22°C° 0 mm 1 mps 744 mmHg 53%
    16:00 +21°C° 0 mm 1 mps 744 mmHg 57%
    17:00 +19°C° 0 mm 1 mps 744 mmHg 61%
    18:00 +18°C° 0 mm 1 mps 745 mmHg 66%
    19:00 +14°C° 0 mm 0 mps 745 mmHg 71%
    20:00 +14°C° 0 mm 0 mps 745 mmHg 73%
    21:00 +14°C° 0 mm 0 mps 745 mmHg 75%
    22:00 +13°C° 0 mm 0 mps 745 mmHg 76%
    23:00 +13°C° 0 mm 0 mps 745 mmHg 78%

    Day after tomorrow, 20 October, Friday

    Time Temperature Precipitation Wind Pressure Humidity
    00:00 +12°C° 0 mm 0 mps 745 mmHg 80%
    01:00 +12°C° 0 mm 0 mps 745 mmHg 81%
    02:00 +12°C° 0 mm 0 mps 745 mmHg 82%
    03:00 +11°C° 0 mm 0 mps 745 mmHg 84%
    04:00 +11°C° 0 mm 0 mps 745 mmHg 85%
    05:00 +11°C° 0 mm 0 mps 745 mmHg 85%
    06:00 +11°C° 0 mm 0 mps 745 mmHg 85%
    07:00 +11°C° 0 mm 0 mps 746 mmHg 85%
    08:00 +13°C° 0 mm 0 mps 746 mmHg 77%
    09:00 +16°C° 0 mm 1 mps 746 mmHg 69%
    10:00 +19°C° 0 mm 1 mps 746 mmHg 61%
    11:00 +20°C° 0 mm 1 mps 746 mmHg 58%
    12:00 +21°C° 0 mm 1 mps 746 mmHg 55%
    13:00 +21°C° 0 mm 2 mps 745 mmHg 52%
    14:00 +21°C° 0 mm 1 mps 745 mmHg 54%
    15:00 +21°C° 0 mm 1 mps 745 mmHg 57%
    16:00 +20°C° 0 mm 1 mps 745 mmHg 60%
    17:00 +19°C° 0 mm 1 mps 745 mmHg 64%
    18:00 +16°C° 0 mm 1 mps 746 mmHg 69%
    19:00 +15°C° 0 mm 1 mps 746 mmHg 74%
    20:00 +14°C° 0 mm 1 mps 746 mmHg 75%
    21:00 +14°C° 0 mm 1 mps 747 mmHg 77%
    22:00 +14°C° 0 mm 1 mps 747 mmHg 79%
    23:00 +13°C° 0 mm 1 mps 747 mmHg 80%

    21 October, Saturday

    Time Temperature Precipitation Wind Pressure Humidity
    00:00 +13°C° 0 mm 1 mps 747 mmHg 81%
    01:00 +13°C° 0 mm 1 mps 747 mmHg 82%
    02:00 +12°C° 0 mm 1 mps 747 mmHg 83%
    03:00 +12°C° 0 mm 1 mps 747 mmHg 84%
    04:00 +12°C° 0 mm 1 mps 747 mmHg 85%
    05:00 +12°C° 0 mm 1 mps 747 mmHg 85%
    06:00 +12°C° 0 mm 1 mps 747 mmHg 85%
    07:00 +12°C° 0 mm 1 mps 747 mmHg 85%
    08:00 +14°C° 0 mm 1 mps 748 mmHg 78%
    09:00 +16°C° 0 mm 1 mps 748 mmHg 70%
    10:00 +18°C° 0 mm 1 mps 748 mmHg 62%
    11:00 +19°C° 0 mm 1 mps 748 mmHg 59%
    12:00 +20°C° 0 mm 1 mps 747 mmHg 55%
    13:00 +21°C° 0 mm 1 mps 747 mmHg 52%
    14:00 +21°C° 0 mm 1 mps 747 mmHg 55%
    15:00 +20°C° 0 mm 1 mps 747 mmHg 58%
    16:00 +20°C° 0 mm 1 mps 746 mmHg 60%
    17:00 +18°C° 0 mm 1 mps 746 mmHg 65%
    18:00 +16°C° 0 mm 1 mps 747 mmHg 70%
    19:00 +15°C° 0 mm 1 mps 747 mmHg 74%
    20:00 +14°C° 0 mm 1 mps 747 mmHg 76%
    21:00 +14°C° 0 mm 1 mps 747 mmHg 77%
    22:00 +14°C° 0 mm 1 mps 747 mmHg 79%
    23:00 +14°C° 0 mm 1 mps 746 mmHg 80%

    22 October, Sunday

    Time Temperature Precipitation Wind Pressure Humidity
    00:00 +13°C° 0 mm 1 mps 746 mmHg 81%
    01:00 +13°C° 0 mm 1 mps 746 mmHg 83%
    02:00 +13°C° 0 mm 1 mps 746 mmHg 84%
    03:00 +13°C° 0 mm 1 mps 746 mmHg 85%
    04:00 +12°C° 0 mm 1 mps 745 mmHg 86%
    05:00 +12°C° 0 mm 1 mps 745 mmHg 86%
    06:00 +12°C° 0 mm 1 mps 745 mmHg 86%
    07:00 +13°C° 0 mm 1 mps 745 mmHg 86%
    08:00 +14°C° 0 mm 1 mps 745 mmHg 80%
    09:00 +15°C° 0 mm 1 mps 745 mmHg 75%
    10:00 +18°C° 0 mm 1 mps 745 mmHg 70%
    11:00 +18°C° 0 mm 1 mps 745 mmHg 68%
    12:00 +18°C° 0 mm 2 mps 744 mmHg 66%
    13:00 +18°C° 0 mm 2 mps 744 mmHg 65%
    14:00 +17°C° 0.2 mm 2 mps 744 mmHg 68%
    15:00 +17°C° 0.2 mm 3 mps 744 mmHg 71%
    16:00 +16°C° 0.2 mm 3 mps 743 mmHg 74%
    17:00 +14°C° 1.5 mm 4 mps 743 mmHg 77%
    18:00 +13°C° 1.5 mm 6 mps 743 mmHg 79%
    19:00 +11°C° 1.5 mm 7 mps 743 mmHg 82%
    20:00 +10°C° 3.6 mm 7 mps 743 mmHg 83%
    21:00 +9°C° 3.6 mm 7 mps 744 mmHg 85%
    22:00 +9°C° 3.6 mm 7 mps 744 mmHg 86%
    23:00 +9°C° 2.1 mm 8 mps 744 mmHg 85%

    23 October, Monday

    Time Temperature Precipitation Wind Pressure Humidity
    00:00 +7°C° 2.1 mm 8 mps 744 mmHg 84%
    01:00 +7°C° 2.1 mm 9 mps 744 mmHg 83%
    02:00 +7°C° 1.3 mm 9 mps 744 mmHg 83%
    03:00 +7°C° 1.3 mm 9 mps 743 mmHg 83%
    04:00 +7°C° 1.3 mm 9 mps 743 mmHg 83%
    05:00 +7°C° 1.2 mm 9 mps 744 mmHg 83%
    06:00 +7°C° 1.2 mm 9 mps 744 mmHg 83%
    07:00 +7°C° 1.2 mm 9 mps 744 mmHg 83%
    08:00 +7°C° 1.2 mm 10 mps 744 mmHg 82%
    09:00 +7°C° 1.2 mm 10 mps 744 mmHg 82%
    10:00 +7°C° 1.2 mm 10 mps 745 mmHg 82%
    11:00 +7°C° 1.2 mm 10 mps 745 mmHg 82%
    12:00 +7°C° 1.2 mm 10 mps 745 mmHg 82%
    13:00 +7°C° 1.2 mm 10 mps 745 mmHg 82%
    14:00 +7°C° 1 mm 10 mps 745 mmHg 82%
    15:00 +7°C° 1 mm 9 mps 746 mmHg 83%
    16:00 +7°C° 1 mm 9 mps 746 mmHg 83%
    17:00 +7°C° 0.6 mm 9 mps 747 mmHg 83%
    18:00 +7°C° 0.6 mm 9 mps 747 mmHg 83%
    19:00 +7°C° 0.6 mm 8 mps 748 mmHg 83%
    20:00 +7°C° 0.6 mm 8 mps 748 mmHg 82%
    21:00 +7°C° 0.6 mm 8 mps 748 mmHg 82%
    22:00 +7°C° 0.6 mm 8 mps 749 mmHg 82%
    23:00 +7°C° 0.2 mm 8 mps 749 mmHg 81%
    Show more